Regional Weather Roundup
Issued by NWS Binghamton, NY

Home | Current Version | Previous Version | Text Only | Print | Product List | Glossary On
Versions: 1 2 3 4 5 6 7 8 9 10 11 12 13 14 15 16 17 18 19 20 21 22 23 24 25 26 27 28 29 30 31 32 33 34 35 36 37 38 39 40 41 42 43 44 45 46 47 48 49
000
ASUS41 KBGM 090310
RWRBGM

REGIONAL WEATHER ROUNDUP
NATIONAL WEATHER SERVICE BINGHAMTON NY
1000 PM EST MON FEB 08 2016

Note: "fair" indicates few or no clouds below 12,000 feet with no
significant weather and/or obstructions to visibility.

* = Station(s) that does not report precipitation, such as rain,
snow, etc, also no thunder or fog.

!NYZ009-015>018-022>025-036-037-044>046-055>057-062-090400
...CENTRAL NEW YORK...

CITY           SKY/WX    TMP DP  RH WIND       PRES   REMARKS
BINGHAMTON     CLOUDY    30  18  60 SE10      29.62F WCI  21
CORTLAND       CLOUDY    32  27  80 E6        29.64S WCI  26
DANSVILLE      FLURRIES  34  31  88 S3        29.60F
ELMIRA         CLOUDY    35  26  69 CALM      29.62S
ITHACA         CLOUDY    35  19  52 E10       29.63F WCI  27
HORNELL        LGT RAIN  34  28  80 SE5       29.61F WCI  30
MONTICELLO     CLOUDY    25  21  86 SE6       29.72S WCI  18
NORWICH        CLOUDY    28  18  64 E7        29.68S WCI  21
ONEONTA        LGT SNOW  21  18  86 E6        29.66S WCI  14
PENN YAN       CLOUDY    36  24  62 S10       29.61F WCI  28
ROME           CLOUDY    27  19  72 SE18      29.74S WCI  14
SIDNEY         LGT SNOW  30  25  80 SE3       29.69R
SYRACUSE       CLOUDY    31  10  41 E9        29.67F WCI  23
$$

!PAZ038>040-043-044-047-048-072-090400
...NORTHEAST PENNSYLVANIA...

CITY           SKY/WX    TMP DP  RH WIND       PRES   REMARKS
HAZLETON       LGT SNOW  30  23  74 SE10G17   29.67S WCI  21
SCRANTON       CLOUDY    33  16  49 SE8G18    29.65F WCI  26
$$
&&
KEY
WCI = WIND CHILL INDEX
VSB = VISIBILITY
HX  = HEAT INDEX
$$



USA.gov is the U.S. government's official web portal to all federal, state and local government web resources and services.